Location: Dziadowski
(50.3833°N, 20.0333°E)
Time: 06:02:20
(UTC+00:00)

ATLAS 2AS CENTAUR R/B - Pass Details

Date: 18 January 2026
Orbit: 1050 x 1161 km, 63.7° (Epoch: 17 February)

Event Time Altitude Azimuth Distance (km) Brightness Sun altitude
Exits shadow 03:16:42 50° 352° (N) 1,319 3.0 -30.5°
Maximum altitude 03:18:11 61° 40° (NE) 1,183 3.0 -30.2°
Drops below altitude 10° 03:24:51 10° 120° (ESE) 2,866 5.6 -29.2°
Sets 03:27:32 0° 124° (SE) 3,823 6.4 -28.8°
